Other Public Products
Issued by NWS Grand Forks, ND

Home | Current Version | Previous Version | Graphics & Text | Print | Product List | Glossary On
Versions: 1 2 3 4 5 6 7 8 9 10 11 12 13 14 15 16 17 18 19 20 21 22 23 24 25 26 27 28 29 30 31 32 33 34 35 36 37 38 39 40 41 42 43 44 45 46 47 48 49 50
000
FPUS83 KFGF 212031
OPUFGF
PRAIRIE TO PINES WEATHER ROUNDUP
NATIONAL WEATHER SERVICE EASTERN NORTH DAKOTA/GRAND FORKS ND
300 PM CDT FRI JUL 21 2017

 **SATELLITE DATA USED TO AUGMENT SKY COVER AT AUTOMATED STATIONS**
 *****  WEATHER ACROSS EASTERN NORTH DAKOTA  *****

CITY           SKY/WX    TMP DP  RH WIND       PRES   REMARKS
GRAND FORKS    TSTM      75  70  84 SW6       29.77R
GRAND FORKS AF MOSUNNY   79  75  89 S3        29.77F
GRAND CITY NWS NOT AVBL
BUXTON           N/A     89  74  59 CALM        N/A  HX  98
DEVILS LAKE    LGT RAIN  78  69  73 NW7       29.83S
FARGO          FAIR      92  71  50 N5        29.75F HX  98
WAHPETON ARPT  FAIR      86  72  62 S7        29.78F HX  92
$$

 *****  WEATHER ACROSS CENTRAL AND WESTERN NORTH DAKOTA  *****

CITY           SKY/WX    TMP DP  RH WIND       PRES   REMARKS
JAMESTOWN      FAIR      91  65  41 CALM      29.78F HX  93
BISMARCK       PTSUNNY   89  69  51 S5        29.81S HX  93
MINOT          FAIR      83  64  52 SW7       29.78R
MINOT AFB      FAIR      80  65  58 W7        29.78R
GARRISON         N/A     86  63  45 SE7       29.79F
WILLISTON      FAIR      90  58  33 VRB3      29.82F
DICKINSON      FAIR      87  63  44 W7        29.84S
HETTINGER      FAIR      90  61  37 MISG      29.87F HX  90
$$

 *****  OTHER OBSERVATIONS NORTHEAST NORTH DAKOTA  *****

CITY           SKY/WX    TMP DP  RH WIND       PRES   REMARKS
WALHALLA       NOT AVBL
LANGDON        FAIR      75  75 100 E13       29.77F
CAVALIER       FAIR      81  72  74 E7        29.77F
GRAFTON        FAIR      82  72  69 CALM      29.79F
CANDO          NOT AVBL
FORT TOTTEN      N/A     77  68  72 N2        29.95S
ROLLA            N/A     77  73  88 VRB5G12   29.77R
RUGBY          NOT AVBL
 ***** THE ABOVE OBSERVATIONS ARE NON NWS ARE NOT QUALITY
        CONTROLLED AND MAY MIS-REPORT RAIN FOR SNOW...
$$

 *****  OTHER OBSERVATIONS SOUTHEAST NORTH DAKOTA *****

CITY           SKY/WX    TMP DP  RH WIND       PRES   REMARKS
COOPERSTOWN    FAIR      84  68  58 NW10      29.83R
VALLEY CITY      N/A     90  64  43 W3        29.80S HX  91
OAKES          NOT AVBL
GWINNER          N/A     90  73  58 CALM      29.77F HX  98
SHEYENNE NWR     N/A     94  73  49 NW3       29.95S HX 102
BUFFALO          N/A     91  56  29 CALM        N/A
WYNDMERE       NOT AVBL
 ***** THE ABOVE OBSERVATIONS ARE NON NWS ARE NOT QUALITY
       CONTROLLED AND MAY MIS-REPORT RAIN FOR SNOW...
$$

  *****  WEATHER ACROSS NORTHERN MINNESOTA  *****

CITY           SKY/WX    TMP DP  RH WIND       PRES   REMARKS
FLAG ISLAND    FAIR      70  61  73 NE15      29.88R
WARROAD        FAIR      75  66  73 NE12G17   29.84R
ROSEAU         FAIR      82  72  69 NE10      29.83R
HALLOCK        FAIR      81  72  74 NE7       29.78S
THF RVR FALLS  FAIR      85  72  65 VRB6      29.78F HX  91
HALSTAD          N/A     87  70  56 W2          N/A  HX  91
FOSSTON        FAIR      84  70  61 S8G16     29.79F
BAUDETTE       FAIR      75  65  70 E13       29.80F
WASKISH        TSTM      77  61  57 SE8       29.83S
CROOKSTON      FAIR      84  72  65 W7        29.77R THUNDER
$$
  *****  WEATHER ACROSS CENTRAL AND WEST MINNESOTA  *****

CITY           SKY/WX    TMP DP  RH WIND       PRES   REMARKS
BEMIDJI        PTSUNNY   84  64  50 SE13      29.81S
PARK RAPIDS    FAIR      87  67  51 S12       29.82F HX  90
WADENA         PTSUNNY   81  70  69 S10       29.82F
DETROIT LAKES  PTSUNNY   84  72  65 SE9       29.81F
MOORHEAD       FAIR      91  70  49 SE5       29.76F HX  97
FERGUS FALLS   PTSUNNY   84  73  70 S10       29.78F HX  91
ELBOW LAKE     FAIR      83  73  71 SE9       29.81F HAZE    HX  90
MORRIS MN      FAIR      88  72  58 SE12      29.80F HX  94
STAPLES        PTSUNNY   82  70  65 S8        29.83F
WHEATON        FAIR      84  72  65 SE12G18   29.79F
$$
  *****  WEATHER ELSEWHERE ACROSS MINNESOTA  *****

CITY           SKY/WX    TMP DP  RH WIND       PRES   REMARKS
DULUTH         FAIR      76  66  71 SE12      29.89F
INTRNTL FALLS  FAIR      76  61  59 E9        29.86F
ELY            FAIR      82  57  42 SW10      29.89F
CLOQUET        FAIR      79  63  57 E8        29.87F
BRAINERD       PTSUNNY   82  70  66 S13G20    29.84F
HIBBING        FAIR      83  61  47 SE12      29.86F
ALEXANDRIA     FAIR      83  72  69 S12       29.85F
SAINT CLOUD    PTSUNNY   80  72  76 S8        29.85S
MINNEAPOLIS    PTSUNNY   80  68  66 S10       29.84F
$$

  *****  WEATHER ACROSS SOUTH DAKOTA  *****

CITY           SKY/WX    TMP DP  RH WIND       PRES   REMARKS
SIOUX FALLS    PTSUNNY   85  73  67 SE9       29.83F HX  91
BROOKINGS      FAIR      85  72  65 SW7       29.85S HX  91
WATERTOWN      FAIR      87  69  54 E5        29.82F HX  91
HURON          FAIR      88  70  55 S7        29.78F HX  93
SISSETON         N/A     90  76  63 SE10      29.77S HX 101
ABERDEEN       FAIR      87  75  67 S6        29.78F HX  96
MITCHELL       FAIR      89  71  55 SE12      29.79F HX  95
PIERRE         FAIR      95  67  39 NW8       29.77F HX  99
MOBRIDGE       FAIR      90  73  57 VRB5      29.77F HX  98
RAPID CITY     FAIR      92  51  24 N29G39    29.90F
$$

  *****  SOME WEATHER IN NEARBY STATES *****

CITY           SKY/WX    TMP DP  RH WIND       PRES   REMARKS
GLASGOW MT     FAIR      88  33  14 NW21G31   29.87F
GREAT FALLS MT FAIR      84  20   9 W15G33    30.00F
CHEYENNE WY    FAIR      86  38  18 N8G18     30.16F
SCOTTSBLUFF NE FAIR      96  48  19 NW10      29.99F HX  92
OMAHA NE       FAIR     100  72  40 S18G25    29.75F HX 109
DES MOINES IA  FAIR     100  71  39 S16       29.78F HX 108
DAVENPORT IA   PTSUNNY   89  79  72 S10G17    29.88F HX 104
CHICAGO IL     PTSUNNY   87  70  56 VRB6      29.93F HX  92
EAU CLAIRE WI  PTSUNNY   75  70  84 SE9       29.88F
LA CROSSE WI   LGT RAIN  74  71  91 SE6       29.91F
$$

  *****  SOME NATIONAL WEATHER *****

CITY           SKY/WX    TMP DP  RH WIND       PRES   REMARKS
LA GUARDIA NY  PTSUNNY   93  63  36 W16G22    29.85S HX  94
RALEIGH NC     PTSUNNY   96  65  35 NW7       29.97F HX  98
ATLANTA GA     PTSUNNY   91  71  51 W7        30.01F HX  97
NEW ORLEANS LA CLOUDY    84  72  67 SE8       30.01S
OKLAHOMA CITY  FAIR     101  61  26 SW12G21   29.94F HX 102
ALBUQUERQUE NM FAIR      86  50  28 SW12G17   30.15F
SALT LAKE CITY FAIR      94  53  25 NW8       30.04F HX  91
LOS ANGELES CA FAIR      77  64  64 W12       29.96F
BOISE ID       FAIR      88  42  20 NW12      30.05F
SEATTLE WA     PTSUNNY   71  52  50 VRB3      30.16S
$$

*** WEATHER ACROSS MANITOBA...SASKATCHEWAN AND ONTARIO ***
                ***ONTARIO***

CITY           SKY/WX    TMP DP  RH WIND       PRES   REMARKS
GERALDTON      PTSUNNY   73  48  40 NW7       29.96S
THUNDER BAY    PTSUNNY   70  61  73 NE2       29.91F
SIOUX LOOKOUT  PTSUNNY   75  59  57 VRB2      29.92S
TORONTO        PTSUNNY   84  55  37 NW16      29.91S
BIG TROUT LK   PTSUNNY   66  41  39 W12       29.96R
PICKLE LAKE    MOSUNNY   70  39  32 W6        29.96F
DRYDEN         LGT RAIN  72  57  60 SW13      29.95R
KENORA         LGT RAIN  63  59  88 NE14      29.94R
$$
                *** MANITOBA***

CITY           SKY/WX    TMP DP  RH WIND       PRES   REMARKS
BRANDON        PTSUNNY   75  64  69 E20       29.80S
DAUPHIN        PTSUNNY   73  61  64 E16G23    29.84R
ISLAND LAKE    MOSUNNY   70  41  35 SW6       29.97F
PILOT MOUND      N/A     75  68  78 SE12G17     N/A
THE PAS        MOSUNNY   72  46  40 E10       29.92F
THOMPSON       MOSUNNY   73  39  29 SW6       29.95S
WINNIPEG       CLOUDY    70  63  78 E17G28    29.84F
LYNN LAKE      SUNNY     72  39  30 VRB6      29.96S
CHURCHILL      MOSUNNY   61  43  51 N7        29.94S
GILLAM         MOSUNNY   72  43  35 W9        29.92F
$$
                ***SASKATCHEWAN***

CITY           SKY/WX    TMP DP  RH WIND       PRES   REMARKS
ESTEVAN        PTSUNNY   81  66  61 SW12      29.81F
KINDERSLEY     TSTM      70  52  52 NW5       29.87S
LLOYDMINSTER   PTSUNNY   68  55  64 W12       29.84S
PRINCE ALBERT  LGT RAIN  61  59  94 E14       29.87F
REGINA         PTSUNNY   82  57  42 W10       29.78F
YORKTON        MOSUNNY   73  64  73 E10       29.80F



USA.gov is the U.S. government's official web portal to all federal, state and local government web resources and services.